Overview Statistics Trail Chart Weather Telemetry Raw packets
 

This is the latest recevied weather packets stored in our database for station/object KC4GS-13. If no packets are shown the sender has not sent any weather packets the latest 10 day(s).

<< 89 90 91 92 93 94 95 >>
Time Temp. Humidity Pressure Rain* Wind** Luminosity Snow
1787962249 27.22° C 86% 1017.5 hPa 0 mm - 0 W/m² -
1787961944 27.22° C 86% 1017.7 hPa 0 mm - 0 W/m² -
1787961639 27.78° C 85% 1017.7 hPa 0 mm - 0 W/m² -
1787961333 27.78° C 85% 1018.2 hPa 0 mm - 1 W/m² -
1787961027 27.78° C 84% 1018.3 hPa 0 mm - 4 W/m² -
1787960721 28.33° C 84% 1018.3 hPa 0 mm - 9 W/m² -
1787960421 28.33° C 84% 1018.3 hPa 0 mm - 15 W/m² -
1787960116 28.33° C 83% 1018.3 hPa 0 mm - 21 W/m² -
1787959810 28.33° C 83% 1018.1 hPa 0 mm - 26 W/m² -
1787959500 28.33° C 83% 1018 hPa 0 mm - 33 W/m² -
1787959194 28.33° C 82% 1018.1 hPa 0 mm - 39 W/m² -
1787958890 28.33° C 82% 1017.7 hPa 0 mm - 39 W/m² -
1787958590 28.33° C 82% 1017.8 hPa 0 mm - 35 W/m² -
1787958285 28.89° C 81% 1017.8 hPa 0 mm - 42 W/m² -
1787957984 28.89° C 80% 1017.6 hPa 0 mm - 41 W/m² -
1787957679 28.89° C 79% 1017.8 hPa 0 mm - 40 W/m² -
1787957375 28.89° C 79% 1017.8 hPa 0 mm - 57 W/m² -
1787957074 28.89° C 79% 1017.8 hPa 0 mm - 57 W/m² -
1787956773 29.44° C 78% 1017.8 hPa 0 mm - 46 W/m² -
1787956469 29.44° C 77% 1017.8 hPa 0 mm - 46 W/m² -
1787956164 30° C 76% 1018 hPa 0 mm - 45 W/m² -
1787955863 30° C 76% 1017.8 hPa 0 mm - 73 W/m² -
1787955559 30.56° C 75% 1017.6 hPa 0 mm - 115 W/m² -
1787955254 30° C 75% 1017.6 hPa 0 mm - 288 W/m² -
1787954949 30° C 75% 1017.6 hPa 0 mm - 104 W/m² -

* Rain latest hour (hover to see other rain measurements)
** Current wind speed in m/s (hover to see current wind gust speed)